星链-35768(STARLINK-35768)

导读

STARLINK-35678是美国SpaceX星链计划中的卫星,于2025年12月8日发射。星链计划旨在构建全球卫星互联网星座,为全球偏远地区等提供高速网络接入服务。该卫星加入庞大星链组网后,将进一步提升星座的覆盖能力与服务容量,推动全球互联网络基础设施建设。

基本信息
目录编号:
66971
目录名称:
STARLINK-35678
国际标识:
2025-288N
轨道中心:
EARTH
卫星名称:
星链-35768
卫星全名:
星链-35768(STARLINK-35768)
卫星状态:
在轨 (已飞行187 天)
发射日期:
2025-12-08 UTC
国别 :
美国 (US)
星等 :
--
轨道信息
数据来源 国际轨道数据 AOE轨道数据
星历时间 2026-06-13T04:00:02+0800
13小时前
查看轨道信息
2026-06-11T06:00:00+0800
2天前
查看轨道信息
半长轴 6861.123km 6861.213km
偏心率 0.0001517 0.0001511
轨道倾角 42.999° 42.999°
近地点辐角 269.407° 256.247°
升交点赤经 206.119° 216.945°
平近点角 265.297° 165.693°
近地点 481.945km 482.039km
远地点 484.027km 484.113km
周期 94.265分钟 94.267分钟
每日圈数 15.276011 15.275712
详细信息
固有亮度:
5
最大亮度:
2.5
卫星平台:
Starlink V1.0
覆盖范围:
全球
运营商:
太空探索技术公司
运营商所在国:
美国
制造商(研发单位):
太空探索技术公司
制造商所在国:
美国
使用方式:
暂无
卫星简介
Starlink 计划是 SpaceX 推出的全球卫星互联网项目,通过发射低轨道卫星,为全球尤其是偏远地区提供高速、低延迟的互联网服务。自 2019 年起,Starlink 已部署数千颗卫星,旨在缩小全球数字鸿沟,推动互联网普及。该项目还为军事、航空等行业提供通信支持,带来广泛经济效益。
2D轨道图
3D轨道图
轨道高度分析图
轨道倾角分析图
轨道综合分析图
查看轨道综合分析图